Location: Arcusa
(42.3167°N, 0.0833°W)
Time: 00:11:10
(UTC+00:00)

SKYMED 2 - Pass Details

Date: 25 January 2020
Orbit: 621 x 623 km, 97.9° (Epoch: 23 February)

Event Time Altitude Azimuth Distance (km) Brightness Sun altitude
Rises 05:52:35 0° 190° (S) 2,890 7.0 -16.3°
Reaches altitude 10° 05:54:57 10° 200° (SSW) 1,988 6.1 -15.9°
Maximum altitude 05:58:49 31° 264° (W) 1,087 4.3 -15.2°
Enters shadow 06:00:48 22° 308° (NW) 1,385 4.8 -14.8°
